Keokuk, IA

3:35 PM CDT on April 29, 2017 (GMT -0500)
Keokuk Municipal

Weather History for KEOK - November, 2013

Change the Weather History Date:

Friday, November 1, 2013

  Actual Average Record
Temperature  
Mean Temperature 48 °F -  
Max Temperature 55 °F 60 °F 82 °F (1950)
Min Temperature 41 °F 44 °F 23 °F (2014)
Degree Days  
Heating Degree Days 17    
Moisture  
Dew Point 41 °F    
Average Humidity 82    
Maximum Humidity 100    
Minimum Humidity 54    
Precipitation  
Precipitation 0.00 in - - ()
Sea Level Pressure  
Sea Level Pressure 29.68 in    
Wind  
Wind Speed 9 mph (WSW)    
Max Wind Speed 17 mph    
Max Gust Speed 18 mph    
Visibility 10 miles    
Events Rain    
Averages and records for this station are not official NWS values.
T = Trace of Precipitation, MM = Missing Value Source: NWS Daily Summary

Daily Weather History Graph

Daily Weather History Graph

Search for Another Location

Airport or City:

Trip Planner

Search our weather history database for the weather conditions in past years. The results will help you decide how hot, cold, wet, or windy it might be!

Date:

Astronomy

Nov. 01, 2013 Rise Set
Actual Time 7:35 AM CDT 6:02 PM CDT
Civil Twilight 7:07 AM CDT 6:30 PM CDT
Nautical Twilight 6:35 AM CDT 7:02 PM CDT
Astronomical Twilight 6:03 AM CDT 7:34 PM CDT
Moon 5:28 AM CDT (11/1) 4:55 PM CDT (11/1)
Length of Visible Light 11h 22m
Length of Day
10h 26m
Waning Crescent, 4% of the Moon is Illuminated
Nov 1
Waning Crescent
Nov 3
New
Nov 9
First Quarter
Nov 17
Full
Nov 25
Last Quarter

Hourly Weather History & Observations

Time (CDT) Temp. Windchill Dew Point Humidity Pressure Visibility Wind Dir Wind Speed Gust Speed Precip Events Conditions
12:15 AM 46.4 °F 41.5 °F 44.6 °F 93% 29.53 in 10.0 mi WSW 10.4 mph - N/A   Overcast
12:35 AM 46.4 °F 41.9 °F 44.6 °F 93% 29.53 in 10.0 mi WSW 9.2 mph - N/A   Mostly Cloudy
12:55 AM 46.4 °F 41.9 °F 44.6 °F 93% 29.54 in 10.0 mi WSW 9.2 mph - N/A   Partly Cloudy
1:15 AM 44.6 °F 40.2 °F 44.6 °F 100% 29.54 in 10.0 mi WSW 8.1 mph - N/A   Clear
1:35 AM 44.6 °F 40.2 °F 44.6 °F 100% 29.55 in 10.0 mi SW 8.1 mph - N/A   Clear
1:55 AM 44.6 °F 41.4 °F 42.8 °F 93% 29.54 in 10.0 mi WSW 5.8 mph - N/A   Clear
2:15 AM 42.8 °F 38.6 °F 42.8 °F 100% 29.55 in 10.0 mi SW 6.9 mph - N/A   Clear
2:35 AM 42.8 °F 38.0 °F 42.8 °F 100% 29.56 in 9.0 mi SSW 8.1 mph - N/A   Partly Cloudy
2:55 AM 42.8 °F 38.0 °F 42.8 °F 100% 29.56 in 9.0 mi SW 8.1 mph - N/A   Mostly Cloudy
3:15 AM 42.8 °F 38.0 °F 42.8 °F 100% 29.56 in 10.0 mi SW 8.1 mph - N/A   Clear
3:35 AM 42.8 °F 38.0 °F 42.8 °F 100% 29.56 in 10.0 mi WSW 8.1 mph - N/A   Clear
3:55 AM 42.8 °F 37.5 °F 42.8 °F 100% 29.57 in 10.0 mi SW 9.2 mph - N/A   Clear
4:15 AM 42.8 °F 38.0 °F 42.8 °F 100% 29.57 in 10.0 mi SW 8.1 mph - N/A   Scattered Clouds
4:35 AM 42.8 °F 37.0 °F 42.8 °F 100% 29.59 in 10.0 mi SW 10.4 mph - N/A   Mostly Cloudy
4:55 AM 42.8 °F 38.0 °F 41.0 °F 93% 29.59 in 10.0 mi WSW 8.1 mph - N/A   Scattered Clouds
5:15 AM 42.8 °F 38.0 °F 41.0 °F 93% 29.58 in 10.0 mi West 8.1 mph - N/A   Clear
5:35 AM 42.8 °F 38.6 °F 41.0 °F 93% 29.59 in 10.0 mi WSW 6.9 mph - N/A   Clear
5:55 AM 42.8 °F 38.0 °F 41.0 °F 93% 29.60 in 10.0 mi WSW 8.1 mph - N/A   Clear
6:15 AM 42.8 °F 37.5 °F 41.0 °F 93% 29.61 in 10.0 mi WSW 9.2 mph - N/A   Clear
6:35 AM 42.8 °F 38.0 °F 41.0 °F 93% 29.61 in 10.0 mi WSW 8.1 mph - N/A   Clear
6:55 AM 42.8 °F 38.0 °F 41.0 °F 93% 29.61 in 10.0 mi WSW 8.1 mph - N/A   Clear
7:15 AM 41.0 °F 35.2 °F 39.2 °F 93% 29.62 in 10.0 mi West 9.2 mph - N/A   Clear
7:35 AM 41.0 °F 35.8 °F 39.2 °F 93% 29.62 in 10.0 mi West 8.1 mph - N/A   Clear
7:55 AM 41.0 °F 35.2 °F 39.2 °F 93% 29.63 in 10.0 mi West 9.2 mph - N/A   Clear
8:15 AM 42.8 °F 37.5 °F 39.2 °F 87% 29.63 in 10.0 mi West 9.2 mph - N/A   Clear
8:35 AM 42.8 °F 37.5 °F 41.0 °F 93% 29.64 in 10.0 mi West 9.2 mph - N/A   Clear
8:55 AM 44.6 °F 40.2 °F 41.0 °F 87% 29.65 in 10.0 mi West 8.1 mph - N/A   Clear
9:15 AM 44.6 °F 38.8 °F 41.0 °F 87% 29.66 in 10.0 mi West 11.5 mph - N/A   Clear
9:35 AM 46.4 °F 41.9 °F 41.0 °F 81% 29.66 in 10.0 mi West 9.2 mph - N/A   Clear
9:55 AM 46.4 °F 41.1 °F 41.0 °F 81% 29.67 in 10.0 mi West 11.5 mph - N/A   Clear
10:15 AM 48.2 °F - 42.8 °F 82% 29.67 in 10.0 mi WSW 9.2 mph - N/A   Clear
10:35 AM 48.2 °F - 42.8 °F 82% 29.68 in 10.0 mi West 9.2 mph - N/A   Clear
10:55 AM 48.2 °F - 42.8 °F 82% 29.69 in 10.0 mi West 11.5 mph - N/A   Scattered Clouds
11:15 AM 50.0 °F - 42.8 °F 76% 29.69 in 10.0 mi West 15.0 mph - N/A   Mostly Cloudy
11:35 AM 50.0 °F - 41.0 °F 71% 29.70 in 10.0 mi WNW 9.2 mph - N/A   Overcast
11:55 AM 51.8 °F - 41.0 °F 67% 29.70 in 10.0 mi WNW 9.2 mph - N/A   Scattered Clouds
12:15 PM 51.8 °F - 41.0 °F 67% 29.71 in 10.0 mi West 10.4 mph 17.3 mph N/A   Mostly Cloudy
12:35 PM 51.8 °F - 41.0 °F 67% 29.70 in 10.0 mi West 12.7 mph - N/A   Mostly Cloudy
12:55 PM 51.8 °F - 41.0 °F 67% 29.70 in 10.0 mi WNW 13.8 mph - N/A   Overcast
1:15 PM 51.8 °F - 41.0 °F 67% 29.71 in 10.0 mi West 13.8 mph - N/A   Overcast
1:35 PM 51.8 °F - 41.0 °F 67% 29.71 in 10.0 mi WNW 8.1 mph 17.3 mph N/A   Overcast
1:55 PM 51.8 °F - 41.0 °F 67% 29.71 in 10.0 mi WNW 11.5 mph - N/A   Overcast
2:15 PM 51.8 °F - 41.0 °F 67% 29.71 in 10.0 mi WNW 11.5 mph - N/A   Overcast
2:35 PM 53.6 °F - 41.0 °F 62% 29.71 in 10.0 mi WNW 12.7 mph - N/A   Overcast
2:55 PM 53.6 °F - 41.0 °F 62% 29.71 in 10.0 mi West 12.7 mph 18.4 mph N/A   Overcast
3:15 PM 55.4 °F - 41.0 °F 58% 29.72 in 10.0 mi NW 12.7 mph - N/A   Scattered Clouds
4:55 PM 55.4 °F - 39.2 °F 54% 29.74 in 10.0 mi WNW 17.3 mph - N/A   Mostly Cloudy
5:15 PM 53.6 °F - 37.4 °F 54% 29.75 in 10.0 mi WNW 17.3 mph - N/A   Mostly Cloudy
5:35 PM 53.6 °F - 37.4 °F 54% 29.75 in 10.0 mi WNW 9.2 mph 18.4 mph N/A   Clear
5:55 PM 51.8 °F - 37.4 °F 58% 29.76 in 10.0 mi WNW 8.1 mph - N/A   Clear
6:15 PM 51.8 °F - 37.4 °F 58% 29.76 in 10.0 mi WNW 4.6 mph - N/A   Mostly Cloudy
6:35 PM 48.2 °F - 37.4 °F 66% 29.77 in 10.0 mi West 4.6 mph - N/A   Mostly Cloudy
6:55 PM 46.4 °F 44.3 °F 37.4 °F 71% 29.78 in 10.0 mi WSW 4.6 mph - N/A   Overcast
7:15 PM 46.4 °F - 39.2 °F 76% 29.78 in 10.0 mi Calm Calm - N/A   Overcast
7:35 PM 44.6 °F 43.1 °F 39.2 °F 81% 29.78 in 10.0 mi WSW 3.5 mph - N/A   Scattered Clouds
7:55 PM 44.6 °F 42.2 °F 39.2 °F 81% 29.79 in 10.0 mi SW 4.6 mph - N/A   Mostly Cloudy
8:15 PM 42.8 °F 39.3 °F 39.2 °F 87% 29.79 in 10.0 mi SW 5.8 mph - N/A   Mostly Cloudy
8:35 PM 41.0 °F 36.4 °F 39.2 °F 93% 29.79 in 10.0 mi SW 6.9 mph - N/A   Overcast
8:55 PM 42.8 °F 38.6 °F 37.4 °F 81% 29.79 in 10.0 mi SW 6.9 mph - N/A   Partly Cloudy
9:15 PM 42.8 °F 38.6 °F 37.4 °F 81% 29.80 in 10.0 mi SW 6.9 mph - N/A   Partly Cloudy
9:35 PM 44.6 °F 40.2 °F 37.4 °F 76% 29.80 in 10.0 mi WSW 8.1 mph - N/A   Partly Cloudy
9:55 PM 42.8 °F 38.6 °F 37.4 °F 81% 29.81 in 10.0 mi WSW 6.9 mph - N/A   Partly Cloudy
10:15 PM 42.8 °F 38.0 °F 37.4 °F 81% 29.81 in 10.0 mi WSW 8.1 mph - N/A   Clear
10:35 PM 42.8 °F 38.6 °F 39.2 °F 87% 29.81 in 10.0 mi WSW 6.9 mph - N/A   Clear
10:55 PM 42.8 °F 37.0 °F 39.2 °F 87% 29.82 in 10.0 mi West 10.4 mph - N/A   Clear
11:15 PM 44.6 °F 39.2 °F 39.2 °F 81% 29.82 in 10.0 mi West 10.4 mph - N/A   Mostly Cloudy
11:35 PM 46.4 °F 40.4 °F 41.0 °F 81% 29.82 in 9.0 mi West 13.8 mph - N/A Rain Light Rain
11:55 PM 46.4 °F 41.9 °F 41.0 °F 81% 29.82 in 10.0 mi West 9.2 mph - N/A   Overcast